| time (UTC) | temp F | wind direction | speed knots | gust knots | rain 1hr in | rain 24hr in | rain mn in | humidity % | barometer mb |
| 20260507023041 | 55 | 265 | 0.0 | 1.7 | 0.00 | 0.26 | 0.26 | 96 | 1006.9 |
| 20260507021559 | 55 | 254 | 0.0 | 2.6 | 0.00 | 0.26 | 0.26 | 96 | 1007.1 |
| 20260507020030 | 55 | 271 | 0.9 | 2.6 | 0.00 | 0.26 | 0.26 | 96 | 1007.5 |
| 20260507014555 | 55 | 211 | 0.9 | 2.6 | 0.00 | 0.26 | 0.26 | 96 | 1007.7 |
| 20260507013049 | 55 | 241 | 0.0 | 4.3 | 0.00 | 0.26 | 0.26 | 96 | 1007.2 |
| 20260507011513 | 56 | 172 | 0.9 | 6.1 | 0.00 | 0.26 | 0.26 | 96 | 1007.1 |
| 20260507010036 | 56 | 218 | 1.7 | 4.3 | 0.00 | 0.26 | 0.26 | 96 | 1007.5 |
| 20260507004541 | 56 | 194 | 0.9 | 3.5 | 0.00 | 0.26 | 0.26 | 96 | 1007.7 |
| 20260507003049 | 56 | 219 | 0.9 | 4.3 | 0.00 | 0.26 | 0.26 | 96 | 1007.9 |
| 20260507001604 | 56 | 234 | 0.9 | 2.6 | 0.00 | 0.26 | 0.26 | 96 | 1007.5 |
| 20260507000028 | 56 | 265 | 1.7 | 5.2 | 0.00 | 0.26 | 0.26 | 95 | 1007.5 |
| 20260506234543 | 56 | 238 | 1.7 | 6.1 | 0.00 | 0.26 | 0.26 | 95 | 1007.3 |
| 20260506233039 | 56 | 232 | 3.5 | 9.6 | 0.00 | 0.26 | 0.26 | 95 | 1007.3 |
| 20260506231558 | 56 | 155 | 3.5 | 11.3 | 0.00 | 0.26 | 0.26 | 95 | 1007.4 |
| 20260506230001 | 56 | 271 | 3.5 | 10.4 | 0.00 | 0.26 | 0.26 | 95 | 1007.3 |
| 20260506224528 | 56 | 215 | 3.5 | 10.4 | 0.01 | 0.26 | 0.26 | 95 | 1007.3 |
| 20260506223049 | 56 | 246 | 2.6 | 10.4 | 0.03 | 0.26 | 0.26 | 95 | 1007.2 |
| 20260506221537 | 56 | 225 | 3.5 | 9.6 | 0.05 | 0.26 | 0.26 | 95 | 1007.1 |
| 20260506220055 | 56 | 256 | 3.5 | 13.0 | 0.10 | 0.26 | 0.26 | 94 | 1007.3 |
| 20260506214552 | 56 | 255 | 6.1 | 10.4 | 0.15 | 0.25 | 0.25 | 93 | 1007.3 |
| 20260506213142 | 56 | 223 | 4.3 | 9.6 | 0.15 | 0.23 | 0.23 | 92 | 1007.2 |
| 20260506211632 | 56 | 234 | 3.5 | 9.6 | 0.15 | 0.21 | 0.21 | 91 | 1007.6 |
| 20260506210016 | 57 | 189 | 4.3 | 13.9 | 0.10 | 0.16 | 0.16 | 91 | 1007.8 |
| 20260506204547 | 57 | 253 | 3.5 | 10.4 | 0.05 | 0.10 | 0.10 | 90 | 1007.9 |
| 20260506203046 | 57 | 148 | 5.2 | 13.0 | 0.03 | 0.08 | 0.08 | 90 | 1007.8 |
| 20260506201604 | 58 | 252 | 4.3 | 13.0 | 0.01 | 0.06 | 0.06 | 90 | 1007.9 |
| 20260506200100 | 58 | 238 | 4.3 | 18.2 | 0.01 | 0.06 | 0.06 | 89 | 1007.8 |
| 20260506194516 | 58 | 216 | 4.3 | 12.2 | 0.02 | 0.05 | 0.05 | 90 | 1007.9 |
| 20260506193042 | 57 | 272 | 5.2 | 13.0 | 0.04 | 0.05 | 0.05 | 90 | 1008.2 |
| 20260506191546 | 57 | 286 | 3.5 | 14.8 | 0.05 | 0.05 | 0.05 | 90 | 1008.4 |
| 20260506190007 | 57 | 269 | 4.3 | 11.3 | 0.05 | 0.05 | 0.05 | 90 | 1008.4 |
| 20260506184536 | 57 | 234 | 1.7 | 11.3 | 0.03 | 0.03 | 0.03 | 88 | 1008.7 |
| 20260506183042 | 58 | 153 | 3.5 | 9.6 | 0.01 | 0.01 | 0.01 | 86 | 1008.7 |
| 20260506181548 | 59 | 243 | 2.6 | 7.8 | 0.00 | 0.00 | 0.00 | 85 | 1009.1 |
| 20260506174601 | 60 | 245 | 3.5 | 9.6 | 0.00 | 0.00 | 0.00 | 82 | 1009.4 |
| 20260506173108 | 60 | 243 | 7.0 | 14.8 | 0.00 | 0.00 | 0.00 | 81 | 1009.8 |
| 20260506171529 | 61 | 262 | 3.5 | 15.6 | 0.00 | 0.00 | 0.00 | 81 | 1009.7 |
| 20260506170055 | 60 | 192 | 6.1 | 13.9 | 0.00 | 0.00 | 0.00 | 81 | 1010.2 |
| 20260506164540 | 60 | 282 | 6.1 | 12.2 | 0.00 | 0.00 | 0.00 | 81 | 1010.2 |
| 20260506163104 | 61 | 344 | 3.5 | 12.2 | 0.00 | 0.00 | 0.00 | 80 | 1010.3 |
| 20260506161507 | 62 | 261 | 6.1 | 19.1 | 0.00 | 0.00 | 0.00 | 79 | 1010.6 |
| 20260506160017 | 62 | 261 | 3.5 | 16.5 | 0.00 | 0.00 | 0.00 | 79 | 1010.9 |
| 20260506154544 | 62 | 231 | 3.5 | 13.9 | 0.00 | 0.00 | 0.00 | 79 | 1010.8 |
| 20260506153103 | 62 | 187 | 7.0 | 13.9 | 0.00 | 0.00 | 0.00 | 78 | 1010.9 |
| 20260506151558 | 63 | 198 | 4.3 | 13.9 | 0.00 | 0.00 | 0.00 | 78 | 1010.8 |
| 20260506150022 | 64 | 93 | 7.0 | 13.9 | 0.00 | 0.00 | 0.00 | 75 | 1010.8 |
| 20260506144543 | 63 | 261 | 6.1 | 14.8 | 0.00 | 0.00 | 0.00 | 77 | 1010.9 |
| 20260506143047 | 63 | 243 | 5.2 | 12.2 | 0.00 | 0.00 | 0.00 | 78 | 1011.2 |
| 20260506141559 | 62 | 185 | 3.5 | 13.0 | 0.00 | 0.00 | 0.00 | 79 | 1011.1 |
| 20260506140022 | 61 | 269 | 4.3 | 12.2 | 0.00 | 0.00 | 0.00 | 81 | 1010.9 |
| 20260506134547 | 61 | 174 | 4.3 | 11.3 | 0.00 | 0.00 | 0.00 | 81 | 1010.9 |
| 20260506133103 | 62 | 172 | 4.3 | 12.2 | 0.00 | 0.00 | 0.00 | 79 | 1010.7 |
| 20260506131600 | 62 | 245 | 3.5 | 9.6 | 0.00 | 0.00 | 0.00 | 80 | 1011.1 |
| 20260506124503 | 61 | 238 | 3.5 | 16.5 | 0.00 | 0.00 | 0.00 | 81 | 1011.1 |
| 20260506123033 | 60 | 257 | 2.6 | 14.8 | 0.00 | 0.00 | 0.00 | 82 | 1011.2 |
| 20260506121547 | 60 | 244 | 3.5 | 12.2 | 0.00 | 0.00 | 0.00 | 83 | 1011.3 |
| 20260506120053 | 59 | 259 | 4.3 | 9.6 | 0.00 | 0.00 | 0.00 | 84 | 1011.2 |
| 20260506114552 | 59 | 248 | 4.3 | 12.2 | 0.00 | 0.00 | 0.00 | 84 | 1011.3 |
| 20260506113105 | 59 | 260 | 2.6 | 9.6 | 0.00 | 0.00 | 0.00 | 84 | 1011.4 |
| 20260506111512 | 58 | 259 | 2.6 | 7.0 | 0.00 | 0.00 | 0.00 | 85 | 1011.3 |
| 20260506110041 | 58 | 173 | 1.7 | 9.6 | 0.00 | 0.00 | 0.00 | 87 | 1011.5 |
| 20260506104556 | 57 | 298 | 0.9 | 9.6 | 0.00 | 0.00 | 0.00 | 87 | 1011.2 |
| 20260506103056 | 57 | 177 | 4.3 | 14.8 | 0.00 | 0.00 | 0.00 | 87 | 1011.3 |
| 20260506101503 | 57 | 243 | 2.6 | 13.0 | 0.00 | 0.00 | 0.00 | 86 | 1011.1 |
| 20260506100031 | 58 | 249 | 2.6 | 9.6 | 0.00 | 0.00 | 0.00 | 86 | 1011.1 |
| 20260506094545 | 58 | 203 | 4.3 | 13.9 | 0.00 | 0.00 | 0.00 | 87 | 1011.1 |
| 20260506093100 | 58 | 183 | 4.3 | 11.3 | 0.00 | 0.00 | 0.00 | 87 | 1011.1 |
| 20260506091523 | 58 | 199 | 3.5 | 8.7 | 0.00 | 0.00 | 0.00 | 86 | 1011.1 |
| 20260506090046 | 58 | 264 | 3.5 | 10.4 | 0.00 | 0.00 | 0.00 | 86 | 1011.3 |
| 20260506084604 | 58 | 238 | 3.5 | 12.2 | 0.00 | 0.00 | 0.00 | 85 | 1011.4 |
| 20260506083047 | 58 | 320 | 3.5 | 10.4 | 0.00 | 0.00 | 0.00 | 85 | 1011.4 |
| 20260506081608 | 58 | 327 | 1.7 | 8.7 | 0.00 | 0.00 | 0.00 | 85 | 1011.5 |
| 20260506073040 | 58 | 276 | 2.6 | 10.4 | 0.00 | 0.00 | 0.00 | 84 | 1011.5 |
| 20260506071555 | 58 | 238 | 0.9 | 12.2 | 0.00 | 0.00 | 0.00 | 84 | 1011.5 |
| 20260506061548 | 58 | 275 | 0.9 | 6.1 | 0.00 | 0.00 | 0.00 | 83 | 1011.8 |
| 20260506044546 | 59 | 265 | 1.7 | 7.8 | 0.00 | 0.00 | 0.00 | 81 | 1012.2 |
| 20260506043100 | 59 | 257 | 4.3 | 11.3 | 0.00 | 0.00 | 0.00 | 81 | 1012.2 |
| 20260506041515 | 59 | 294 | 2.6 | 8.7 | 0.00 | 0.00 | 0.00 | 79 | 1012.3 |
| 20260506040026 | 60 | 250 | 2.6 | 9.6 | 0.00 | 0.00 | 0.00 | 78 | 1012.2 |
| 20260506034543 | 60 | 258 | 5.2 | 11.3 | 0.00 | 0.00 | 0.00 | 78 | 1012.1 |
| 20260506033043 | 60 | 196 | 5.2 | 13.0 | 0.00 | 0.00 | 0.00 | 77 | 1012.2 |
| 20260506031501 | 60 | 259 | 4.3 | 12.2 | 0.00 | 0.00 | 0.00 | 77 | 1012.0 |
| 20260506030031 | 60 | 247 | 2.6 | 13.9 | 0.00 | 0.00 | 0.00 | 76 | 1012.1 |
| 20260506024557 | 60 | 273 | 4.3 | 12.2 | 0.00 | 0.00 | 0.00 | 76 | 1012.0 |